Home   Weather   Oberstedten   Past weeks
Flag for Germany

Past Weather in Oberstedten, Hesse, Germany — Yesterday and Last 2 Weeks

Currently: 70 °F. Passing clouds. (Weather station: Frankfurt-M-Flughafen Airport, Germany). See more current weather

Past Weather in Oberstedten — Graph

°F

Oberstedten Temperature Yesterday

Maximum temperature yesterday: 82 °F (at 1:20 pm)
Minimum temperature yesterday: 54 °F (at 4:50 am)
Average temperature yesterday: 71 °F

High & Low Weather Summary for the Past Weeks

 TemperatureHumidityPressure
High90 °F (Jun 23, 2:50 pm)100% (Jun 23, 5:20 am)30.27 "Hg (Jun 23, 5:20 am)
Low50 °F (Jul 2, 4:20 am)24% (Jul 3, 5:50 pm)29.74 "Hg (Jun 24, 2:50 pm)
Average72 °F58%29.99 "Hg
* Reported Jun 21 11:20 am — Jul 6 11:50 am, Oberstedten. Weather by CustomWeather, © 2022

Note: Actual official high and low records may vary slightly from our data, if they occured in-between our weather recording intervals... More about our weather records

Oberstedten Weather History for the Previous 24 Hours

Scroll right to see more
 ConditionsComfort  
Time TempWeatherWind HumidityBarometerVisibility
11:50 am
Wed, Jul 6
68 °FPassing clouds.8 mph43%30.24 "HgN/A
11:20 am66 °FPassing clouds.7 mph46%30.27 "HgN/A
10:20 am64 °FScattered clouds.10 mph52%30.27 "HgN/A
9:50 am64 °FScattered clouds.10 mph56%30.27 "HgN/A
9:20 am64 °FScattered clouds.10 mph56%30.27 "HgN/A
8:50 am63 °FScattered clouds.10 mph59%30.24 "HgN/A
8:20 am61 °FScattered clouds.12 mph63%30.24 "HgN/A
7:50 am61 °FScattered clouds.10 mph63%30.24 "HgN/A
7:20 am61 °FPassing clouds.9 mph63%30.24 "HgN/A
6:50 am59 °FPassing clouds.9 mph68%30.24 "HgN/A
6:20 am59 °FPassing clouds.9 mph68%30.24 "HgN/A
5:50 am59 °FPassing clouds.6 mph68%30.24 "HgN/A
5:20 am59 °FPassing clouds.8 mph68%30.21 "HgN/A
4:50 am61 °FClear.10 mph63%30.21 "Hg10 mi
4:20 am61 °FClear.12 mph63%30.21 "Hg10 mi
3:50 am61 °FClear.10 mph68%30.21 "Hg10 mi
3:20 am63 °FClear.8 mph64%30.21 "Hg10 mi
2:50 am63 °FClear.9 mph64%30.21 "Hg10 mi
1:20 am64 °FClear.6 mph56%30.21 "Hg10 mi
12:50 am66 °FClear.8 mph52%30.21 "Hg10 mi
12:20 am68 °FClear.8 mph49%30.18 "Hg10 mi
11:50 pm
Tue, Jul 5
68 °FClear.12 mph46%30.18 "Hg10 mi
11:20 pm68 °FClear.7 mph46%30.18 "Hg10 mi
10:50 pm70 °FClear.8 mph43%30.15 "Hg10 mi
10:20 pm72 °FPassing clouds.9 mph41%30.15 "HgN/A
9:50 pm72 °FPassing clouds.10 mph41%30.15 "HgN/A
9:20 pm73 °FSunny.13 mph38%30.15 "Hg10 mi
8:50 pm75 °FSunny.13 mph36%30.12 "Hg10 mi
8:20 pm75 °FSunny.14 mph36%30.12 "Hg10 mi
7:50 pm77 °FSunny.15 mph36%30.12 "Hg10 mi
7:20 pm79 °FSunny.14 mph34%30.12 "Hg10 mi
6:50 pm79 °FSunny.14 mph34%30.12 "Hg10 mi
6:20 pm79 °FPassing clouds.10 mph34%30.09 "HgN/A
5:50 pm81 °FPassing clouds.10 mph32%30.12 "HgN/A
5:20 pm79 °FPassing clouds.9 mph32%30.12 "HgN/A
4:50 pm81 °FSunny.6 mph30%30.12 "Hg10 mi
4:20 pm82 °FPassing clouds.8 mph26%30.12 "HgN/A
3:50 pm81 °FPassing clouds.8 mph28%30.12 "HgN/A
3:20 pm81 °FPassing clouds.10 mph28%30.12 "HgN/A
2:50 pm81 °FPassing clouds.7 mph28%30.12 "HgN/A
2:20 pm81 °FPassing clouds.10 mph30%30.12 "HgN/A
1:50 pm79 °FSunny.6 mph32%30.12 "Hg10 mi
1:20 pm82 °FPassing clouds.10 mph28%30.15 "HgN/A
Weather by CustomWeather, © 2022

See weather overview